Regional Weather Roundup
Issued by NWS Bismarck, ND

Home | Current Version | Previous Version | Text Only | Print | Product List | Glossary On
Versions: 1 2 3 4 5 6 7 8 9 10 11 12 13 14 15 16 17 18 19 20 21 22 23 24 25 26 27 28 29 30 31 32 33 34 35 36 37 38 39 40 41 42 43 44 45 46 47 48 49 50
000
ASUS43 KBIS 200102
RWRBIS

NWR BROADCAST TEXT
NATIONAL WEATHER SERVICE BISMARCK ND
700 PM CST SUN FEB 19 2017

NOTE: "FAIR" INDICATES FEW OR NO CLOUDS BELOW 12,000 FEET WITH NO
SIGNIFICANT WEATHER AND/OR OBSTRUCTIONS TO VISIBILITY.


CITY           SKY/WX    TMP DP  RH WIND       PRES   REMARKS
WILLISTON      FAIR      34  31  88 NW7       29.51R
MINOT          FAIR      35  32  88 CALM      29.51R
MINOT AFB      NOT AVBL
BISMARCK       FAIR      40  36  86 E6        29.52R
DICKINSON      FAIR      46  36  68 SE6       29.46R
GARRISON         N/A     36  33  89 CALM      29.50R
HETTINGER ARPT FAIR      49  37  63 SE5       29.48R
JAMESTOWN      FAIR      44  42  93 SE9       29.54S
CARRINGTON     FAIR      39  37  93 SE14      29.55S
HAZEN            N/A    N/A N/A N/A CALM      29.51R
MANDAN         FAIR      39  36  87 SE7       29.52R
STANLEY        FOG       32  32 100 NE5       29.52S VSB<1/4
WATFORD CITY   FAIR      32  32 100 CALM      29.50R
$$

CITY           SKY/WX    TMP DP  RH WIND       PRES   REMARKS
GRAND FORKS    FAIR      41  33  73 SE8       29.63R
GRAND FORKS AF FAIR      38  35  91 SE7       29.62R
DEVILS LAKE    FAIR      37  36  96 SE10      29.55F
FARGO          FAIR      52  45  77 SE18G25   29.63R
CAVALIER       FAIR      37  32  81 SE9       29.63F
GRAFTON        FAIR      36  34  93 E6        29.66S
GWINNER        FAIR      52  48  87 SE14      29.60S
ROLLA          CLOUDY    32  32 100 SE9       29.57R
$$

CITY           SKY/WX    TMP DP  RH WIND       PRES   REMARKS
ABERDEEN       FAIR      51  46  83 S14       29.57R
MOBRIDGE       FAIR      43  35  73 SE13      29.48R
BUFFALO          N/A     57  35  43 S8        29.41R
RAPID CITY     FAIR      56  33  42 S13       29.52R
GLASGOW        FOG       33  32  96 S8        29.53R VSB 1/4
SIDNEY         FAIR      36  33  89 N7        29.51R
WOLF POINT     CLOUDY    35  33  92 CALM      29.54R FOG
GLENDIVE       FAIR      41  35  79 CALM      29.51R
MILES CITY     CLOUDY    45  36  70 SW8       29.50R
BAKER          FAIR      44  35  70 CALM      29.49R
$$

CITY           SKY/WX    TMP DP  RH WIND       PRES   REMARKS
BILLINGS       MOCLDY    47  30  51 N5        29.57R
GREAT FALLS    FAIR      37  20  50 SW9       29.54R
ESTEVAN        CLOUDY    32  32 100 E14G20    29.52F FOG
$$





USA.gov is the U.S. government's official web portal to all federal, state and local government web resources and services.